Wind_Speed
8 8 4 4 0 2 7 6 13 9 11 8 15 12 15 10 5 9 21 22 22 18 17 17 16 17 17 17 16 16 15 15 16 16 17 16 17 17 17 17 17 17 16 15 15 14 13 14 15
6 5 8 3 2 6 6 8 11 19 15 23 22 22 19 19 18 18 18 27 23 20 18 19 16 17 17 16 16 14 13 15 15 15 16 17 16 17 16 16 16 15 14 13 12 12 12 13 14
5 7 2 2 1 5 4 8 15 18 19 21 12 15 10 17 14 11 29 30 28 21 21 19 16 16 16 15 15 14 12 13 13 13 14 15 15 15 15 15 14 13 12 11 9 10 11 12 14
10 4 3 1 7 11 13 12 17 17 22 21 18 14 13 22 16 30 35 29 24 23 21 19 17 17 16 15 16 13 13 11 13 14 14 14 14 15 14 13 12 11 10 9 8 8 10 12 13
13 2 2 11 14 18 14 18 18 17 15 22 23 16 16 27 32 28 32 27 24 23 21 19 17 17 17 16 17 14 12 14 14 13 13 14 15 15 14 13 12 10 10 10 9 10 11 14 15
3 3 3 8 13 9 13 13 18 21 19 22 24 23 16 33 29 29 29 29 23 24 20 18 17 17 16 16 15 12 12 12 12 13 15 16 16 15 14 12 11 10 11 11 11 11 12 16 17
5 2 8 8 14 13 12 11 19 20 23 16 19 25 14 26 28 29 27 30 25 22 20 18 17 15 15 15 14 13 15 16 15 17 19 18 17 15 13 11 10 10 10 10 11 12 13 15 16
3 1 1 5 6 11 17 14 18 25 21 25 21 11 17 24 35 30 27 28 26 19 18 17 17 15 17 17 17 17 19 19 19 18 18 16 14 12 11 10 9 10 10 9 8 8 9 10 11
3 1 1 8 9 18 18 19 16 18 25 18 9 18 24 33 33 30 19 25 23 26 19 18 16 17 18 20 20 17 16 13 12 12 12 11 10 8 9 9 7 8 9 7 6 5 4 2 4
2 2 7 10 10 18 20 17 16 13 18 23 22 22 28 34 31 26 23 17 21 24 20 19 18 20 20 22 19 13 8 9 8 6 4 6 5 6 7 7 5 5 6 4 1 3 2 6 8
4 5 6 11 11 16 17 16 16 20 20 22 27 23 20 29 28 27 24 28 26 25 19 20 19 15 20 19 14 11 10 4 8 8 3 3 11 6 9 6 0 2 2 5 1 5 3 11 20
3 9 12 11 16 15 12 13 14 19 21 22 21 20 20 12 23 25 25 27 27 24 23 25 13 12 18 14 15 11 8 7 4 5 6 6 4 2 14 9 6 3 7 10 6 3 8 10 20
3 8 12 15 13 9 11 7 18 23 23 21 19 19 18 15 17 24 27 25 26 26 20 23 15 13 9 11 15 19 13 10 7 6 13 13 5 4 16 9 11 15 10 10 8 15 13 6 5
17 9 15 11 7 14 12 11 16 20 21 20 18 16 16 13 15 18 22 26 25 25 23 20 17 12 12 15 17 13 6 9 9 4 3 9 6 11 12 8 11 11 3 4 11 10 17 13 9
12 6 12 11 8 11 9 13 13 16 18 17 14 11 18 12 18 21 23 29 29 24 21 21 16 10 8 10 11 7 3 12 7 14 4 6 3 5 8 1 4 3 2 6 18 9 12 7 14
9 4 3 9 13 3 8 11 16 15 14 13 13 11 15 19 24 23 26 23 26 28 25 19 15 13 8 13 12 4 6 8 15 16 10 4 3 2 6 7 7 6 5 6 13 14 8 2 8
6 4 4 8 13 10 6 13 17 14 13 11 10 8 15 9 17 21 22 26 27 30 24 24 18 15 12 13 6 2 3 6 11 16 15 9 5 3 8 6 6 9 9 6 7 8 6 6 5
13 7 4 5 3 12 9 13 15 14 15 13 10 9 12 15 14 23 21 24 26 28 23 22 21 20 15 11 7 5 2 7 5 2 14 11 8 6 7 8 6 10 7 8 7 11 12 9 9
18 11 7 2 6 6 10 9 13 14 12 14 13 9 14 12 21 26 28 25 24 26 23 23 19 24 20 15 12 10 8 3 2 6 11 7 2 5 4 10 10 11 10 6 10 12 11 12 13
19 10 4 12 7 6 12 3 10 10 16 16 15 12 15 13 9 18 27 26 29 28 25 24 17 27 20 14 13 5 3 5 3 3 5 11 8 5 11 9 11 9 13 11 11 16 9 9 14
19 23 12 14 16 5 11 3 10 5 2 13 16 15 17 16 13 14 25 27 28 31 26 26 21 22 19 15 11 8 5 1 3 5 3 7 8 9 7 10 11 11 14 12 12 14 9 10 12
9 26 19 23 12 7 4 4 5 8 6 7 17 16 16 16 14 12 21 27 30 32 33 29 25 22 18 18 8 6 5 1 4 6 3 5 2 6 6 11 15 13 11 14 15 15 15 14 16
6 9 22 26 12 8 4 5 7 6 10 7 13 18 21 22 20 19 21 24 31 31 34 32 30 25 20 19 12 4 5 3 2 5 7 7 5 3 8 13 21 15 7 11 12 15 17 16 16
10 4 9 8 6 3 13 6 5 7 13 8 3 7 17 21 19 20 29 27 30 31 31 28 23 23 17 16 13 10 5 2 3 2 2 3 5 7 7 5 15 14 10 11 16 17 18 19 19
9 4 4 4 2 8 14 3 7 17 11 15 7 3 5 11 19 17 16 24 28 27 26 30 29 24 16 3 6 8 8 9 6 5 6 8 10 9 10 6 7 12 12 14 13 15 16 18 19
7 6 5 4 3 7 19 8 5 16 11 7 5 7 4 14 13 16 15 23 25 25 29 33 29 13 8 6 10 11 10 10 8 9 10 11 10 11 11 8 7 8 14 17 17 17 17 18 22
7 6 10 6 5 3 3 6 8 5 11 9 7 4 2 7 21 19 24 26 28 30 25 25 25 24 21 19 17 16 13 11 9 10 12 13 9 6 12 14 13 15 17 18 21 23 25 21 21
8 6 4 4 3 4 4 6 9 14 11 11 10 10 11 11 19 18 23 25 28 32 31 26 24 21 15 16 16 16 14 12 11 10 9 9 10 11 13 16 17 20 23 22 22 25 27 28 28
3 4 4 1 3 1 2 3 14 19 20 20 15 12 11 14 15 14 20 25 29 31 28 23 20 21 20 16 16 12 10 8 7 8 11 14 15 16 18 19 19 20 23 24 25 25 25 27 30
8 7 4 5 9 4 5 2 16 17 15 18 15 14 12 12 12 13 18 23 25 27 25 21 19 19 17 14 11 9 5 5 9 12 12 15 15 18 19 20 23 23 24 25 26 27 26 29 31
Wind_Direction
193 182 182 183 244 106 89 104 94 109 76 86 74 73 86 28 75 128 147 145 127 125 122 116 112 106 104 102 99 96 98 99 100 101 100 100 99 100 102 105 107 109 106 104 105 105 107 113 114
201 218 205 233 148 112 116 131 109 99 112 89 85 86 71 72 91 121 124 136 125 125 123 118 115 111 107 101 100 99 100 100 101 103 103 107 108 107 109 109 109 110 108 107 112 115 112 112 123
247 251 272 198 118 109 111 139 120 106 107 110 107 96 94 122 115 116 135 128 131 128 124 120 120 111 106 104 102 98 102 102 102 111 112 109 111 111 115 113 112 114 112 113 116 117 115 120 128
0 318 271 47 175 149 151 173 108 102 101 107 108 67 84 109 113 124 127 127 125 127 125 125 120 116 112 107 105 109 104 104 107 113 117 117 118 121 120 120 118 116 114 112 114 119 119 126 134
337 251 226 132 107 120 121 127 126 129 118 96 105 115 111 110 129 128 126 128 129 132 128 126 122 118 116 116 110 108 107 105 124 117 119 121 122 122 123 123 122 120 117 114 112 116 122 132 139
193 276 342 111 135 128 133 138 126 114 108 103 106 108 106 126 127 131 133 132 130 131 131 129 124 120 117 117 114 119 114 114 126 127 123 123 122 124 124 123 121 118 114 113 114 117 123 136 139
118 278 154 94 99 100 124 103 117 117 122 113 122 120 135 136 141 141 143 134 135 132 136 129 125 124 115 115 115 117 114 112 115 113 112 117 121 121 120 120 118 115 114 113 117 117 122 136 141
98 327 251 114 141 102 141 128 106 127 120 120 126 143 138 132 130 136 139 137 137 132 132 134 132 131 120 114 116 118 117 116 114 113 117 119 118 115 116 115 121 121 115 111 107 107 126 139 153
116 279 63 153 114 108 105 110 120 130 130 144 123 138 132 135 138 142 142 139 145 142 145 143 136 135 122 122 124 125 121 114 109 115 120 123 135 129 119 118 122 127 126 119 88 78 94 136 182
88 195 86 119 122 129 123 129 136 126 129 118 129 132 141 140 141 144 146 149 138 144 148 153 152 138 127 131 130 130 119 102 104 141 192 180 175 155 142 112 124 144 86 74 64 178 145 18 334
241 260 146 138 144 107 118 142 141 119 126 139 139 146 148 144 152 152 159 160 156 152 158 161 156 171 157 157 141 133 122 124 135 75 82 270 254 216 218 203 294 129 86 13 293 242 169 13 18
266 95 99 103 107 118 156 135 139 128 132 131 138 149 149 165 162 162 162 163 160 157 159 163 167 175 177 188 180 173 147 150 83 68 76 28 114 289 244 274 304 152 71 108 36 299 134 55 347
238 130 103 87 104 137 101 104 113 122 127 132 145 154 166 171 169 153 165 163 156 162 164 165 168 171 179 129 151 193 160 154 105 80 110 144 243 32 27 16 10 124 52 27 19 96 97 122 30
324 100 98 95 113 84 79 91 105 120 127 138 157 169 174 173 153 132 131 156 151 163 170 141 147 141 145 120 122 132 119 171 151 131 147 178 326 20 21 22 55 68 94 19 351 64 62 111 147
317 308 111 124 109 126 119 109 114 126 132 150 176 186 185 150 156 157 165 151 166 169 163 155 138 160 155 165 141 142 133 155 175 178 162 145 158 349 23 333 353 0 35 343 1 72 88 6 165
349 21 63 154 128 68 119 133 135 135 141 162 176 190 125 148 152 152 168 169 154 154 166 160 151 160 166 173 153 176 250 210 186 185 191 188 235 15 355 26 49 354 326 339 21 100 103 186 186
353 344 359 324 147 142 116 141 143 145 158 180 185 156 134 137 136 154 163 182 164 163 169 168 167 167 167 168 172 276 262 185 190 208 195 184 179 229 288 299 321 338 337 344 5 21 25 340 307
220 260 234 242 163 146 144 145 148 162 178 174 162 158 142 133 156 157 165 160 170 166 169 172 178 173 167 181 188 190 231 192 314 225 212 196 201 218 294 328 316 315 353 344 336 340 333 333 321
197 214 203 150 268 62 26 118 162 186 179 171 167 168 156 156 167 166 168 162 164 168 171 178 191 175 170 183 198 217 254 260 11 50 148 189 210 242 238 325 326 356 2 8 351 338 329 309 311
184 183 167 47 350 87 108 323 300 281 193 176 172 172 158 158 148 150 160 161 171 174 178 185 184 171 172 178 197 222 120 198 113 317 271 253 255 257 320 304 300 314 327 335 333 345 290 326 333
194 194 188 147 96 72 98 325 280 270 58 197 174 173 156 162 159 157 160 169 173 176 180 186 164 171 179 186 213 210 193 231 157 125 47 313 238 287 295 291 305 298 295 312 313 334 324 316 319
235 204 174 150 137 164 222 213 289 278 289 331 173 169 164 166 162 163 162 165 175 177 180 179 183 182 191 194 216 217 211 172 83 69 83 45 276 352 279 308 321 307 319 303 307 322 320 323 321
273 9 158 191 158 130 224 94 246 282 246 270 199 179 171 171 167 174 174 173 176 175 185 191 189 192 193 204 209 207 211 107 348 44 53 72 350 288 18 339 311 280 284 317 319 318 318 323 315
322 17 324 308 134 201 194 147 256 204 211 231 155 172 174 173 173 174 176 172 175 177 183 179 178 185 186 192 216 229 209 121 121 87 5 50 34 357 15 310 309 325 307 312 318 312 310 306 302
299 349 314 321 281 240 155 212 231 217 204 216 168 220 122 193 177 173 176 169 174 177 165 162 164 198 190 155 218 203 215 242 195 133 102 62 69 70 55 41 358 349 348 349 341 340 333 333 312
231 192 171 263 310 314 150 152 225 199 183 96 134 165 275 340 178 179 99 94 101 116 138 159 172 146 127 123 106 117 113 91 87 83 67 65 57 52 33 24 359 332 332 334 330 328 328 333 331
250 272 235 245 258 301 120 23 18 40 129 114 157 211 323 26 83 88 88 90 92 96 110 118 117 114 111 104 102 93 88 86 77 64 65 68 56 36 351 349 348 347 341 337 331 329 326 321 315
171 238 354 342 288 262 159 170 144 141 134 158 117 112 100 97 83 90 93 95 94 96 101 97 107 107 105 96 102 93 83 74 73 73 50 30 17 357 346 337 340 337 333 333 332 325 323 322 314
319 273 282 149 162 234 347 307 153 142 127 114 111 117 102 78 79 80 77 85 92 94 98 100 101 100 98 101 99 102 90 65 44 28 18 11 2 356 353 350 345 348 338 332 328 322 328 320 316
188 243 227 131 280 213 175 65 57 93 115 114 104 87 70 73 67 66 77 82 95 102 108 110 114 111 112 111 112 106 99 66 20 9 17 9 9 4 356 357 353 347 343 342 339 329 324 318 313
Height
775 779 781 780 800 794 798 792 770 779 781 768 768 780 790 786 795 834 817 823 826 828 829 830 831 829 830 830 831 831 832 832 832 833 833 834 834 834 835 835 835 836 837 837 837 836 836 836 837
775 777 780 777 798 809 805 778 784 777 774 771 776 782 792 809 796 808 817 822 824 828 830 830 832 831 831 832 832 834 834 835 835 835 834 835 836 836 836 836 837 837 838 838 838 837 836 837 838
777 774 782 784 786 806 808 777 774 768 766 773 782 780 792 809 805 809 817 821 824 828 830 831 832 832 833 835 835 836 837 836 836 837 836 837 837 837 838 839 839 838 838 838 838 838 837 838 840
777 760 771 791 790 776 780 773 769 773 774 773 775 796 795 803 808 813 818 822 824 828 831 832 833 833 835 837 837 837 838 838 838 838 838 838 838 839 840 841 840 839 839 840 840 840 841 841 842
772 779 792 791 778 766 762 760 765 775 778 782 780 804 804 806 812 816 819 822 825 830 832 833 834 834 836 837 838 839 839 839 840 839 839 839 840 841 842 842 841 840 840 841 843 844 844 844 844
795 779 796 793 778 763 761 757 763 772 778 784 791 801 811 811 814 818 820 823 827 830 833 835 836 837 838 838 839 840 840 840 841 840 840 841 842 843 843 843 842 842 843 844 845 845 845 845 845
789 795 786 777 777 774 765 754 768 773 782 788 791 807 812 812 816 819 822 825 828 831 833 836 838 839 839 839 840 841 842 843 843 843 843 844 844 843 844 844 845 845 847 847 846 846 847 848 849
785 792 781 773 780 780 759 758 759 768 786 783 789 812 815 812 815 820 824 827 829 832 835 837 838 840 840 840 841 843 844 845 845 845 846 847 847 846 845 846 846 848 850 850 850 850 851 851 851
777 793 785 776 772 772 759 768 763 764 777 782 786 796 803 811 816 821 824 828 830 833 836 838 839 840 841 841 843 844 845 845 845 846 847 848 848 847 847 847 848 850 851 852 854 853 852 851 851
782 793 766 750 752 762 759 763 765 772 780 791 795 800 805 811 816 820 823 827 830 833 837 839 841 841 842 843 843 842 843 844 845 846 848 850 849 848 849 849 850 851 855 854 852 851 853 856 856
766 776 751 749 745 748 760 764 760 777 796 790 796 799 803 810 813 817 821 823 827 832 837 841 842 842 842 845 844 843 844 843 846 852 855 856 854 854 851 851 852 855 853 852 848 850 857 864 861
772 746 747 749 748 756 764 758 767 773 786 786 793 798 802 806 813 815 819 823 827 833 836 841 842 842 843 846 845 845 844 844 848 852 854 852 854 857 854 854 855 856 852 850 850 852 859 859 861
763 750 746 747 750 756 757 766 771 781 781 788 795 799 801 803 807 813 817 823 828 831 836 840 841 843 845 846 844 844 845 845 852 852 855 857 855 859 852 851 854 855 852 851 855 855 859 866 873
772 749 753 755 759 761 773 778 779 788 786 792 796 799 799 801 807 813 817 824 828 832 835 840 842 843 844 846 845 845 844 846 852 853 856 857 858 855 852 851 854 855 854 854 856 861 861 869 867
773 770 761 763 765 775 771 794 798 787 788 796 797 797 798 804 808 812 815 822 826 831 836 840 842 845 846 847 849 847 847 846 847 852 855 856 857 857 857 856 856 857 857 857 858 855 856 860 861
799 789 800 769 767 773 779 817 792 786 793 799 796 794 798 806 810 814 818 822 826 829 835 839 842 845 847 848 849 850 850 849 849 849 853 854 856 857 857 859 859 860 857 855 858 858 857 856 861
813 822 812 797 762 773 785 809 790 787 794 799 797 794 799 805 810 815 819 822 825 828 833 838 842 844 847 849 850 851 851 851 853 853 854 854 855 856 859 861 862 861 857 857 857 856 858 859 859
827 829 816 812 780 771 789 797 792 788 792 795 796 797 800 805 809 812 817 822 825 829 833 836 840 842 846 849 851 851 851 853 854 853 854 855 856 858 860 860 860 859 858 856 856 856 855 854 855
798 808 807 790 785 810 804 797 797 789 790 792 794 796 799 802 806 809 814 821 825 829 832 836 840 843 845 849 851 850 852 853 853 854 855 857 858 859 859 860 860 859 858 858 856 855 855 853 853
795 804 803 810 795 817 813 817 809 796 784 785 789 793 797 801 804 808 814 819 823 827 831 834 837 841 845 848 852 854 854 853 854 854 854 856 855 855 856 858 858 858 858 858 858 857 855 853 852
787 795 794 800 812 823 820 834 813 792 791 780 781 785 791 796 802 806 812 817 821 824 828 832 837 840 843 846 849 851 851 854 855 855 856 854 852 853 853 854 853 854 854 855 855 854 853 853 852
779 753 766 799 807 847 816 855 830 803 797 801 778 781 788 790 796 802 807 813 815 820 825 828 832 835 839 843 846 848 850 851 855 855 854 852 851 852 850 852 853 852 851 852 852 851 851 851 849
755 734 758 768 783 811 826 839 821 809 796 795 780 774 775 779 785 794 801 807 812 817 820 824 826 830 833 838 842 844 846 847 851 854 854 852 852 851 853 851 856 851 850 849 849 847 847 847 847
734 742 751 752 782 816 808 813 817 808 792 790 776 771 770 777 782 790 796 801 808 815 818 825 834 836 838 831 837 842 845 845 849 851 851 852 852 853 853 852 846 850 848 847 846 844 843 842 842
748 769 819 817 815 807 787 814 808 772 776 774 773 773 777 776 778 785 791 795 803 810 816 824 829 838 840 833 838 843 843 844 848 849 850 851 852 855 854 853 851 849 848 846 844 841 839 838 837
759 769 817 825 827 801 786 797 781 754 763 771 771 767 768 787 775 783 791 799 805 810 813 820 829 836 836 839 841 842 846 847 849 852 852 853 853 855 859 857 854 851 849 846 843 839 836 834 834
758 778 754 784 774 797 783 782 774 771 774 781 779 784 792 800 786 795 803 804 812 816 821 829 832 836 839 842 844 844 847 850 851 851 851 852 852 852 853 852 850 849 847 844 840 837 835 831 829
744 738 785 790 811 813 793 788 796 782 785 785 795 801 808 808 800 805 809 814 818 823 829 835 836 837 841 844 844 846 849 850 850 849 851 852 851 852 851 851 847 845 844 842 839 836 833 830 829
754 764 758 768 785 813 818 804 758 780 786 798 809 815 812 808 810 814 818 818 823 827 832 837 841 839 843 845 846 847 848 850 850 851 851 850 850 850 849 849 847 842 844 843 839 838 835 832 827
732 750 756 800 798 783 794 813 782 790 793 791 806 812 818 818 821 827 828 830 832 834 837 841 845 843 845 846 847 847 847 845 848 852 848 848 851 851 851 847 844 844 843 841 839 837 832 829 823